This is the latest recevied weather packets stored in our database for station/object VA3BOO. If no packets are shown the sender has not sent any weather packets the latest 10 day(s).
| Time | Temp. | Humidity | Pressure | Rain* | Wind** | Luminosity | Snow |
|---|---|---|---|---|---|---|---|
| 1777722303 | 4.44° C | 83% | 1013 hPa | 0 mm | - | 25 W/m² | - |
| 1777722003 | 4.44° C | 85% | 1013.1 hPa | 0 mm | - | 26 W/m² | - |
| 1777721703 | 4.44° C | 85% | 1013.1 hPa | 0 mm | - | 22 W/m² | - |
| 1777721404 | 4.44° C | 86% | 1012.9 hPa | 0 mm | - | 19 W/m² | - |
| 1777721104 | 4.44° C | 89% | 1012.7 hPa | 0 mm | - | 18 W/m² | - |
| 1777720803 | 4.44° C | 90% | 1012.7 hPa | 0 mm | - | 18 W/m² | - |
| 1777720503 | 4.44° C | 91% | 1012.8 hPa | 0 mm | - | 17 W/m² | - |
| 1777720203 | 4.44° C | 91% | 1012.6 hPa | 0 mm | - | 15 W/m² | - |
| 1777719904 | 4.44° C | 91% | 1012.6 hPa | 0 mm | - | 10 W/m² | - |
| 1777719604 | 4.44° C | 92% | 1012.5 hPa | 0 mm | - | 6 W/m² | - |
| 1777719304 | 4.44° C | 93% | 1012.4 hPa | 0 mm | - | 5 W/m² | - |
| 1777719004 | 4.44° C | 94% | 1012.3 hPa | 0 mm | - | 5 W/m² | - |
| 1777718703 | 4.44° C | 94% | 1012.4 hPa | 0 mm | - | 5 W/m² | - |
| 1777718403 | 4.44° C | 94% | 1012.4 hPa | 0 mm | - | 4 W/m² | - |
| 1777718104 | 4.44° C | 95% | 1012.4 hPa | 0 mm | - | 4 W/m² | - |
| 1777717803 | 4.44° C | 95% | 1012.3 hPa | 0 mm | - | 3 W/m² | - |
| 1777717503 | 4.44° C | 95% | 1012.4 hPa | 0 mm | - | 2 W/m² | - |
| 1777717204 | 4.44° C | 95% | 1012.2 hPa | 0 mm | - | 1 W/m² | - |
| 1777716903 | 4.44° C | 95% | 1012.2 hPa | 0 mm | - | 1 W/m² | - |
| 1777716604 | 3.89° C | 95% | 1012 hPa | 0 mm | - | 1 W/m² | - |
| 1777716303 | 3.89° C | 95% | 1012 hPa | 0 mm | - | 1 W/m² | - |
| 1777716003 | 3.89° C | 95% | 1011.7 hPa | 0 mm | - | 1 W/m² | - |
| 1777715703 | 3.89° C | 96% | 1012 hPa | 0 mm | - | 1 W/m² | - |
| 1777715403 | 4.44° C | 96% | 1011.9 hPa | 0 mm | - | 0 W/m² | - |
| 1777715103 | 3.89° C | 96% | 1011.9 hPa | 0 mm | - | 0 W/m² | - |
* Rain latest hour (hover to see other rain measurements)
** Current wind speed in m/s (hover to see current wind gust speed)